[[{"header":{"parameterUnit":"m.s-1","parameterCategory":1,"la1":30.2991,"la2":30.254,"lo1":-89.0895,"lo2":-89.0444,"dy":0.0017,"dx":0.0017,"nx":28,"ny":28,"refTime":"2024-12-26T03:00:00:Z","depth":0,"parameterNumber":2,"parameterNumberName":"U-component_of_WINDS"},"data":[0,0,0,0,0,0,0,0,0,0,0,0,0,0,0,0,0,0,0,0,0,0,0,0,0,0,0,0,0,0,0,0,0,0,0,0,0,0,0,0,0,0,0,0,0,0,0,0,0,0,0,0,0,0,0,0,0,0,-5.6047,-5.6049,0,-5.6271,-5.6274,-5.6276,-5.6351,-5.635,-5.6349,-5.6348,-5.6577,-5.6583,-5.659,0,0,0,0,0,0,0,0,0,0,0,0,0,-5.5682,-5.5688,-5.6047,-5.6049,-5.6052,-5.6271,-5.6274,-5.6277,-5.6351,-5.635,-5.6349,-5.6348,-5.6574,-5.6582,-5.6591,0,0,0,0,0,0,0,0,0,0,0,0,0,-5.5867,-5.5691,-5.6046,-5.6116,-5.6124,-5.627,-5.6274,-5.6278,-5.6351,-5.635,-5.6349,-5.6347,-5.6572,-5.6582,-5.6592,-5.6685,0,0,-5.6624,-5.6628,0,0,0,0,0,0,0,0,-5.5856,-5.588,-5.6103,-5.6111,-5.6121,-5.6282,-5.6229,-5.6414,-5.6352,-5.6265,-5.6348,-5.6346,-5.648,-5.6497,-5.6543,-5.6696,-5.6706,-5.6625,-5.6631,-5.6636,-5.6639,0,0,0,0,0,0,0,-5.5843,-5.5871,-5.6136,-5.6106,-5.6117,-5.6136,-5.616,-5.6265,-5.6377,-5.6272,-5.6278,-5.6304,-5.6484,-5.6532,-5.6549,-5.6709,-5.6625,-5.6634,-5.664,-5.6644,-5.6952,-5.6953,0,0,0,0,0,0,-5.5819,-5.586,-5.6128,-5.6142,-5.5982,-5.6143,-5.6171,-5.6231,-5.6377,-5.6397,-5.6305,-5.6307,-5.6515,-5.6536,-5.6557,-5.6676,-5.6636,-5.6645,-5.6651,-5.695,-5.6952,-5.6954,0,0,0,0,0,0,-5.5811,-5.5842,-5.6119,-5.6003,-5.604,-5.6151,-5.6219,-5.6237,-5.6285,-5.6401,-5.6422,-5.6333,-5.6515,-5.6542,-5.6653,-5.6685,-5.665,-5.666,-5.6948,-5.695,-5.6953,-5.6913,0,0,0,0,0,0,-5.58,-5.5839,-5.5875,-5.6003,-5.6045,-5.6211,-5.6221,-5.6242,-5.6303,-5.6307,-5.6433,-5.6453,-5.6516,-5.6637,-5.6663,-5.6698,-5.6668,-5.6945,-5.6949,-5.6952,-5.6912,-5.6915,-5.6916,0,0,0,0,0,-5.5787,-5.5854,-5.5876,-5.5908,-5.6093,-5.6213,-5.6237,-5.6309,-5.6305,-5.6342,-5.6418,-5.6449,-5.6678,-5.6648,-5.6678,-5.6717,-5.6943,-5.6948,-5.6952,-5.6911,-5.6914,-5.6916,0,0,0,0,0,0,-5.5725,-5.5872,-5.5898,-5.6009,-5.6098,-5.6225,-5.6274,-5.6309,-5.6401,-5.6401,-5.6486,-5.6514,-5.6618,-5.6679,-5.6643,-5.6815,-5.6812,-5.6823,-5.6771,-5.6775,-5.6777,-5.6758,-5.6676,0,0,0,0,0,-5.5725,-5.581,-5.5934,-5.602,-5.6064,-5.6161,-5.6216,-5.6264,-5.6359,-5.6397,-5.648,-5.6572,-5.6665,-5.6723,-5.6815,-5.6923,-5.6952,-5.6965,-5.6967,-5.6968,-5.6975,-5.7037,-5.7045,-5.6968,-5.6968,-5.6968,0,0,-5.5724,-5.5815,-5.5864,-5.601,-5.6085,-5.6171,-5.6192,-5.6282,-5.6348,-5.6411,-5.652,-5.6585,-5.6693,-5.6803,-5.6855,-5.6857,-5.7003,-5.6973,-5.6973,-5.698,-5.7042,-5.705,-5.7056,-5.6971,-5.697,-5.697,0,0,-5.5767,-5.5845,-5.5925,-5.6,-5.6113,-5.6179,-5.6198,-5.6321,-5.6366,-5.6479,-5.6528,-5.6608,-5.6765,-5.684,-5.6899,-5.6974,-5.7006,-5.7002,-5.7011,-5.7071,-5.7077,-5.7082,-5.7109,-5.7117,-5.7009,-5.7009,-5.7009,0,-5.5751,-5.5884,-5.5962,-5.605,-5.6113,-5.6177,-5.6259,-5.6328,-5.6465,-5.6507,-5.6507,-5.6708,-5.6785,-5.6914,-5.6932,-5.6978,-5.7003,-5.6986,-5.707,-5.7076,-5.7083,-5.7109,-5.7118,-5.7007,-5.7008,-5.7008,-5.7008,0,-5.5859,-5.5951,-5.6002,-5.6134,-5.6204,-5.6288,-5.6379,-5.644,-5.6483,-5.6548,-5.6662,-5.6758,-5.687,-5.6905,-5.6947,-5.7041,-5.7038,-5.7053,-5.7051,-5.7087,-5.7113,-5.7124,-5.7005,-5.7006,-5.7006,-5.7007,0,0,-5.5866,-5.6042,-5.606,-5.6121,-5.6252,-5.6324,-5.6413,-5.6524,-5.6574,-5.6668,-5.6744,-5.6878,-5.6894,-5.696,-5.7012,-5.7065,-5.7118,-5.7074,-5.7078,-5.7078,-5.7227,-5.7213,-5.7223,-5.7142,-5.7144,-5.7146,-5.7218,0,-5.5925,-5.6085,-5.6159,-5.6287,-5.6372,-5.6436,-5.6513,-5.6602,-5.6666,-5.6749,-5.682,-5.6913,-5.6927,-5.6968,-5.7023,-5.71,-5.7149,-5.7096,-5.7213,-5.7216,-5.7181,-5.7237,-5.7222,-5.7285,-5.7228,-5.723,-5.7231,0,-5.6014,-5.6108,-5.6244,-5.6367,-5.6406,-5.6474,-5.6582,-5.6661,-5.6764,-5.6807,-5.6883,-5.6934,-5.703,-5.7024,-5.7158,-5.712,-5.7173,-5.7218,-5.7223,-5.7234,-5.7224,-5.7248,-5.7307,-5.7315,-5.7248,-5.7247,-5.7246,0,-5.6004,-5.6165,-5.6268,-5.6319,-5.6464,-5.6511,-5.6574,-5.6676,-5.6739,-5.6834,-5.6876,-5.6981,-5.7038,-5.7119,-5.7197,-5.7185,-5.7323,-5.7324,-5.7362,-5.7359,-5.7385,-5.7382,-5.7451,-5.7423,-5.7422,-5.7422,-5.7422,0,-5.606,-5.614,-5.6265,-5.6328,-5.6421,-5.6506,-5.6596,-5.6663,-5.6754,-5.6832,-5.6894,-5.6965,-5.7065,-5.7149,-5.7212,-5.7313,-5.7339,-5.7376,-5.7391,-5.737,-5.7364,-5.7403,-5.74,-5.7425,-5.7424,-5.7424,-5.7423,0,-5.6063,-5.615,-5.6266,-5.6396,-5.643,-5.6493,-5.6604,-5.6668,-5.6737,-5.6834,-5.6862,-5.697,-5.7072,-5.7159,-5.7294,-5.7336,-5.7441,-5.746,-5.7406,-5.7414,-5.7446,-5.7441,-5.7541,-5.7558,-5.7519,-5.7519,-5.7519,0,-5.6092,-5.6156,-5.6293,-5.6349,-5.6412,-5.6502,-5.6567,-5.6655,-5.672,-5.6843,-5.6892,-5.7,-5.709,-5.7252,-5.7342,-5.7447,-5.7467,-5.7496,-5.7483,-5.746,-5.7467,-5.7461,-5.7468,-5.7495,-5.7495,-5.7495,-5.7495,0,-5.6134,-5.6175,-5.6266,-5.6373,-5.6448,-5.6537,-5.6627,-5.667,-5.6774,-5.6844,-5.695,-5.7021,-5.716,-5.7266,-5.738,-5.7446,-5.7488,-5.7499,-5.7513,-5.749,-5.7455,-5.7474,-5.7406,-5.7495,-5.7495,-5.7495,-5.7495,-5.7495,-5.6151,-5.621,-5.6317,-5.6417,-5.6494,-5.6577,-5.6644,-5.6722,-5.6812,-5.6932,-5.6979,-5.7087,-5.7191,-5.735,-5.7416,-5.7503,-5.7508,-5.7529,-5.7534,-5.7537,-5.7533,-5.7444,-5.7524,-5.7524,-5.7524,-5.7524,-5.7524,0,-5.6195,-5.6267,-5.6359,-5.6483,-5.6562,-5.6596,-5.6698,-5.6762,-5.6857,-5.695,-5.7039,-5.7162,-5.7266,-5.7365,-5.7475,-5.7525,-5.7547,-5.7551,-5.7547,-5.7561,-5.7522,-5.7498,-5.7531,-5.7531,-5.7531,-5.7531,-5.7531,-5.7531,-5.6227,-5.633,-5.6384,-5.6526,-5.6599,-5.6706,-5.6761,-5.6838,-5.6914,-5.7048,-5.7135,-5.72,-5.7297,-5.7414,-5.7511,-5.7538,-5.7575,-5.7573,-5.7605,-5.7566,-5.7564,-5.7562,-5.754,-5.7581,-5.7581,-5.7636,-5.7637,-5.7637]},{"header":{"parameterUnit":"m.s-1","parameterCategory":1,"la1":30.2991,"la2":30.254,"lo1":-89.0895,"lo2":-89.0444,"dy":0.0017,"dx":0.0017,"nx":28,"ny":28,"refTime":"2024-12-26T03:00:00:Z","depth":0,"parameterNumber":3,"parameterNumberName":"V-component_of_WINDS"},"data":[0,0,0,0,0,0,0,0,0,0,0,0,0,0,0,0,0,0,0,0,0,0,0,0,0,0,0,0,0,0,0,0,0,0,0,0,0,0,0,0,0,0,0,0,0,0,0,0,0,0,0,0,0,0,0,0,0,0,3.3961,3.3961,0,3.3952,3.3952,3.3952,3.3909,3.3908,3.3907,3.3906,3.3894,3.3895,3.3896,0,0,0,0,0,0,0,0,0,0,0,0,0,3.3941,3.3941,3.3961,3.3961,3.3961,3.3952,3.3952,3.3952,3.3909,3.3908,3.3907,3.3906,3.3894,3.3895,3.3896,0,0,0,0,0,0,0,0,0,0,0,0,0,3.3942,3.3942,3.3961,3.3939,3.3937,3.3952,3.3952,3.3952,3.3909,3.3908,3.3906,3.3905,3.3894,3.3895,3.3896,3.3931,0,0,3.3899,3.3899,0,0,0,0,0,0,0,0,3.3942,3.3943,3.3942,3.394,3.3938,3.393,3.394,3.3945,3.391,3.392,3.3906,3.3904,3.3907,3.3907,3.3909,3.3931,3.393,3.3899,3.3899,3.39,3.39,0,0,0,0,0,0,0,3.3942,3.3943,3.3957,3.3942,3.394,3.3929,3.3927,3.3941,3.3922,3.3919,3.3916,3.3915,3.3906,3.3908,3.3908,3.393,3.3899,3.3899,3.39,3.39,3.3985,3.3986,0,0,0,0,0,0,3.3946,3.3944,3.3958,3.3957,3.3937,3.393,3.3929,3.3934,3.3922,3.3918,3.3917,3.3913,3.3907,3.3907,3.3907,3.3951,3.39,3.39,3.3901,3.3983,3.3985,3.3987,0,0,0,0,0,0,3.3945,3.3947,3.3958,3.395,3.395,3.3932,3.3939,3.3935,3.3937,3.392,3.3916,3.3922,3.3906,3.3906,3.3927,3.395,3.3901,3.3902,3.3981,3.3984,3.3986,3.4037,0,0,0,0,0,0,3.3945,3.3947,3.3961,3.395,3.3951,3.3978,3.394,3.3936,3.3939,3.3934,3.3924,3.3921,3.3905,3.3926,3.3928,3.395,3.3902,3.3979,3.3982,3.3985,3.4033,3.4041,3.4048,0,0,0,0,0,3.3944,3.3974,3.3962,3.3964,3.3967,3.3979,3.3979,3.3961,3.3941,3.3954,3.3944,3.3921,3.3947,3.3928,3.393,3.3953,3.3977,3.3981,3.3985,3.403,3.404,3.4048,0,0,0,0,0,0,3.3987,3.3973,3.3958,3.3986,3.3984,3.3972,3.3989,3.3971,3.3974,3.397,3.3945,3.3943,3.3968,3.3962,3.3942,3.3989,3.3958,3.3963,3.3992,3.4001,3.4008,3.401,3.3903,0,0,0,0,0,3.4,3.4011,3.3997,3.4023,3.4023,3.4006,3.4011,3.3997,3.3993,3.3992,3.3983,3.3981,3.3989,3.3994,3.4,3.4032,3.403,3.4049,3.4056,3.4062,3.4067,3.4087,3.4096,3.3999,3.3999,3.3999,0,0,3.4026,3.4019,3.4028,3.4032,3.4029,3.4042,3.4006,3.402,3.403,3.3994,3.4014,3.4008,3.4003,3.4031,3.4042,3.4027,3.4093,3.4067,3.4072,3.4073,3.4091,3.4101,3.4109,3.4002,3.4001,3.4001,0,0,3.4081,3.4076,3.4099,3.4097,3.4094,3.4083,3.4088,3.4079,3.4074,3.4094,3.4069,3.4079,3.4092,3.4091,3.4092,3.4149,3.413,3.4151,3.419,3.4209,3.4217,3.4224,3.4247,3.4255,3.4156,3.4156,3.4156,0,3.4114,3.4133,3.4112,3.4129,3.4133,3.4102,3.4126,3.4125,3.4123,3.4126,3.4109,3.4127,3.4121,3.415,3.4164,3.4165,3.4172,3.4153,3.4218,3.4224,3.423,3.4252,3.4261,3.4159,3.4158,3.4158,3.4158,0,3.4175,3.4188,3.4206,3.4208,3.4213,3.4233,3.4216,3.4224,3.4209,3.42,3.4222,3.4215,3.4221,3.4225,3.421,3.4253,3.4244,3.4222,3.4191,3.4243,3.4263,3.4271,3.4163,3.4162,3.4161,3.416,0,0,3.4256,3.4248,3.4255,3.4257,3.4252,3.4262,3.4281,3.4288,3.4296,3.4296,3.4313,3.4326,3.4307,3.4308,3.4293,3.431,3.4359,3.4286,3.4286,3.4303,3.4409,3.4427,3.4437,3.4346,3.4347,3.4348,3.441,0,3.4312,3.4345,3.4328,3.4364,3.4378,3.435,3.4367,3.4366,3.4358,3.4368,3.4359,3.437,3.4343,3.4344,3.4359,3.435,3.4381,3.4345,3.4362,3.4363,3.4368,3.4447,3.4466,3.4525,3.4418,3.4419,3.442,0,3.4381,3.4386,3.4424,3.4419,3.4424,3.444,3.4447,3.4456,3.4455,3.4448,3.4451,3.4433,3.4452,3.442,3.4447,3.4424,3.4429,3.4426,3.4428,3.4431,3.4397,3.4455,3.4543,3.4554,3.4432,3.4431,3.443,0,3.4441,3.4457,3.4483,3.4485,3.4479,3.4491,3.4489,3.4486,3.4492,3.4497,3.4501,3.4508,3.4512,3.4518,3.4502,3.448,3.4532,3.4498,3.4529,3.4529,3.4543,3.4543,3.4636,3.4542,3.4542,3.4542,3.4541,0,3.4506,3.4531,3.451,3.4527,3.4554,3.4534,3.4562,3.4557,3.4555,3.457,3.4545,3.4559,3.4536,3.4549,3.4536,3.4562,3.4563,3.456,3.4556,3.4564,3.4565,3.4569,3.4566,3.4544,3.4543,3.4543,3.4543,0,3.4579,3.4566,3.4593,3.4585,3.4584,3.4605,3.4599,3.4614,3.4605,3.4625,3.4628,3.4613,3.4627,3.4611,3.4623,3.4614,3.4651,3.464,3.4653,3.4651,3.4683,3.4682,3.4785,3.4799,3.4693,3.4694,3.4695,0,3.4623,3.4642,3.4638,3.4647,3.4647,3.4661,3.4668,3.4649,3.4657,3.4658,3.4674,3.4685,3.4694,3.4717,3.4708,3.4717,3.4708,3.4744,3.4709,3.4717,3.4713,3.4713,3.4716,3.4752,3.4753,3.4754,3.4755,0,3.4704,3.4697,3.4708,3.4718,3.4727,3.4733,3.4737,3.4746,3.4726,3.4737,3.4751,3.4758,3.4771,3.4784,3.4791,3.4789,3.477,3.4765,3.4774,3.4783,3.4791,3.479,3.4675,3.4764,3.4763,3.4762,3.4762,3.4761,3.4766,3.4783,3.4784,3.4798,3.4799,3.4804,3.4819,3.4812,3.4824,3.4835,3.4822,3.4841,3.4841,3.4849,3.4849,3.4864,3.4849,3.4859,3.4863,3.4867,3.4874,3.4786,3.4864,3.4864,3.4864,3.4864,3.4863,0,3.4849,3.4848,3.4861,3.4869,3.4881,3.4861,3.4865,3.4876,3.4894,3.4895,3.4905,3.4923,3.4936,3.4928,3.4939,3.4953,3.4944,3.4956,3.4957,3.4957,3.4884,3.4878,3.4963,3.4963,3.4963,3.4963,3.4963,3.4963,3.4894,3.4923,3.4916,3.4946,3.4944,3.4964,3.4968,3.4973,3.4975,3.4997,3.5008,3.5003,3.5001,3.5013,3.5024,3.5021,3.5028,3.5044,3.5039,3.4972,3.4962,3.4953,3.4947,3.5045,3.5045,3.5111,3.5112,3.5112]}]]